Погода в Нальчике

Погода в Нальчике : погода сейчас, прогноз погоды и архив. Всё, что Вы хотите узнать о погоде в Нальчике!

Поиск расширенной информации на нашем сайте:

Другие новости

Новости СМИ2

Главная страница сайта

Новости сайта

03.07.2017

Напоминаем, что на нашем специализированном сайте Метеоцентр.Азия вы можете получить высокодетализированные автоматические прогнозы погоды по пунктам России, СНГ и мира в авиационном формате (включающие направление и скорость ветра, видимость, явления погоды, количество и форму облачности, нижнюю и верхнюю границу облачности).


Погода в Нальчике - сегодня

Время (UTC), дата Ветер
(°,м/с) 
Видим.   Явления Облачность Т
(°С)
Тd
(°С)
f(%) Тe
(°С)
Pmin
(гПа)
dP
(гПа)
Po
(мм)
O2
(г/м3)
Тmin Tmax R s Состояние
почвы
06 15.08.17 220 (ЮЗ) 2000 м  слаб. ливневой дождь, в посл. час гроза  10/10 500 м кучево-дожд. 
[Cb cap]
+17.8 +16.8 94 +32  1015.4  2.7  725  270  +17.5         
09 15.08.17 100 (В) 10 км  {ливн. осадки}  9/4 1000 м средняя 
[Sc diur, vesp|Ac trans]
+24 +11.8 46 +28  1013.9  -0.5  724  266           
12 15.08.17 110 (В) 10 км  слаб. ливневой дождь  10/5 1000 м кучево-дожд., средняя 
[Cb cap|Ac trans]
+21.8 +16.4 71 +34  1014.6  0.4  725  267           
15 15.08.17 110 (В) 10 км  {ливн. осадки}  9/4 1000 м кучево-дожд., средняя 
[Cb cap|Ac trans]
+20.8 +15.7 73 +32  1014.5  -0.2  725  268    +24.1  11     
18 15.08.17 310 (СЗ) 10 км  {ливн. осадки}  8/3 1000 м кучево-дожд., средняя 
[Cb cap|Ac trans]
+18.2 +16.5 90 +32  1015.1  0.1  725  270           
21 15.08.17 330 (СЗ) 10 км    10/6 1410 м кучево-дожд., средняя 
[Cb cap|Ac trans]
+17.9 +16.8 93 +32  1014.7  -0.4  724  270           
00 16.08.17 340 (С) 10 км    9/3 1000 м средняя 
[Sc diur, vesp|Ac trans]
+18.2 +17 93 +33  1014.4  -0.3  724  270           
03 16.08.17 тихо ()   10 км    6/0 средняя, верхняя 
[Sc|Ac trans|Ci fib]
+16.8 +16.1 96 +28  1014.7  0.1  724  271  +16.8        влажная 
06 16.08.17 040 (СВ) 10 км    4/3 600 м верхняя 
[Cu med, cong|Ci fib]
+22.3 +15.5 65 +33  1014.1  0.3  725  267           
09 16.08.17 120 (ЮВ) 10 км    8/8 1000 м 
[Cu med, cong]
+25.1 +14.2 51 +33  1013.3  -0.4  724  264           
12 16.08.17 170 (Ю) 20000 м    8/6 1080 м верхняя 
[Sc diur, vesp|Ci fib]
+26.5 +12 40 +31  1012.4  -0.7  724  264           
15 16.08.17 220 (ЮЗ) 20000 м    9/0 средняя, верхняя 
[Ac trans|Ci fib]
+23.7 +14.2 55 +32  1012.9  0.1  724  265    +27.4       
18 16.08.17 210 (ЮЗ) 10 км    10/4 1000 м кучево-дожд., средняя 
[Cb cap|Ac cuf]
+22.3 +14.4 61 +31  1013.4  0.2  724  267           
21 16.08.17 270 (З) 10 км    10/0 средняя 
[Ac trans]
+19.2 +15.2 78 +31  1012.9  -0.9  723  269           
00 17.08.17 220 (ЮЗ) 10 км    10/0 средняя, верхняя 
[Ac trans|Ci sp]
+19.6 +14.9 74 +30  1012.4  -0.4  723  269           
03 17.08.17 260 (З) 20000 м    9/4 1000 м средняя 
[Sc|Ac trans]
+18.8 +15.7 82 +31  1012.7  0.1  723  269  +17.5        влажная 
06 17.08.17 010 (С) 20000 м    9/4 1000 м средняя, верхняя 
[Sc|Ac trans|Ci fib]
+23.6 +15 59 +33  1012.2  0.3  723  265           
09 17.08.17 040 (СВ) 20000 м    4/4 1000 м 
[Cu med, cong]
+26.1 +16.3 55 +38  1011  -0.7  723  262           
12 17.08.17 070 (В) 20000 м    10/4 1000 м кучево-дожд., верхняя 
[Cb cap|Ci fib]
+28.3 +13.9 41 +36  1009.5  -0.7  722  261           
15 17.08.17 190 (Ю) 20000 м    10/4 1000 м кучево-дожд., средняя 
[Cb cap|Ac trans]
+26.7 +16 52 +38  1009.4  -0.2  722  261    +29       
18 17.08.17 280 (З) 10 км  зарница  10/5 840 м средняя 
[Sc diur, vesp|Ac trans]
+23.6 +18.1 71 +39  1011.2  1.2  723  264           
21 17.08.17 280 (З) 10 км  слаб. ливневой дождь  10/10 800 м кучево-дожд. 
[Cb cap]
+20.5 +18.6 89 +37  1012.2  0.5  723  267           
00 18.08.17 010 (С) 10 км  слаб. ливневой дождь{гроза}  10/10 240 м кучево-дожд. 
[Cb cap]
+19.4 +18.5 95 +38  1011.7  -0.7  722  267           
03 18.08.17 300 (СЗ) 10 км  слаб. ливневой дождь  10/10 480 м кучево-дожд. 
[Cb cap]
+17.8 +16.6 93 +32  1012.9  0.8  723  270  +17.7      влажная 
06 18.08.17 290 (З) 10 км  слаб. ливневой дождь  10/10 600 м кучево-дожд. 
[Cb cap]
+18.7 +16.9 89 +33  1014.2  1.4  724  269           
Время (UTC), дата Ветер
(°,м/с) 
Видим.   Явления Облачность Т
(°С)
Тd
(°С)
f(%) Тe
(°С)
Pmin
(гПа)
dP
(гПа)
Po
(мм)
O2
(г/м3)
Тmin Tmax R s Состояние
почвы

Для получения пояснительной информации подведите курсор к названию столбца.

ПОГОДА в Нальчике - архив

Всё, что Вы хотите узнать о погоде в Нальчике - удобно и подробно!

Выберите нужную дату (начиная с 1 января 2015* года) и нажмите кнопку "Найти".
Будут отображены архивные сводки погоды по пункту Нальчик, начиная с указанной даты.


Отображать данные в формате CSV (для использования в таблицах Excel)


Внимание! Наш архив погоды предназначен исключительно для личного некоммерческого использования в познавательных целях. Если Вам необходимы официальные справки о состоянии погоды (для производственных, юридических, коммерческих и т.п. целей), обращайтесь в органы Росгидромета.

*Примечание: данная дата относится к архиву по метеостанциям СССР (Россия, СНГ, Балтия).
Архив по метеостанциям Зарубежной Европы и Азии (кроме Китая) хранится 10 дней, по другим регионам земного шара (Китай, Африка, Америка, Австралия, Океания) - 1 день.

Нальчик - район местоположения метеостанции


Название, широта, долгота, высота метеостанции:
Нальчик 43.5°ш. 43.7°д. 432 м над ур. моря [Российская Федерация]

Дополнительная информация

В oтличие oт бoльшинства пoгoдных сайтoв мы публикуем пoдрoбную метеoинфoрмацию в детальнoм прoфессиoнальнoм фoрмате.

Характеристики температуры и влажнoсти вoздуха измеряются на высoте 2 м в тени вдали oт зданий и деревьев.
Скoрoсть ветра измеряется на высoте 10 м (на урoвне рoста челoвека скoрoсть ветра ниже в 1.5-2 раза). Если метеoстанция нахoдится в гoрoде или в лесу, тo скoрoсть ветра занижена на 2-4 м/с пo сравнению с oткрытым местoм. Скoрoсть ветра над акватoриями крупных рек и oзёр, а также на вершинах хoлмoв на 2-5 м/с выше, чем в oбычных услoвиях.
Атмoсфернoе давление в разных тoчках местнoсти мoжет значительнo oтличаться oт давления на метеoстанции, в зависимoсти oт услoвий рельефа (при пoдъёме на 10 м давление пoнижается примернo на 1 мм рт.ст.).